Weather History for KLWV - August, 2013

Change the Weather History Date:

Monday, August 26, 2013

  Actual Average Record
Temperature  
Mean Temperature 79 °F 76 °F  
Max Temperature 91 °F 87 °F 97 °F (2003)
Min Temperature 66 °F 64 °F 55 °F (2015)
Degree Days  
Heating Degree Days 0 0  
Month to date heating degree days 4 0  
Since 1 June heating degree days 8 7  
Since 1 July heating degree days 5 0  
Cooling Degree Days 14 11  
Month to date cooling degree days 233 304  
Year to date cooling degree days 966 1131  
Since 1 June cooling degree days 798 992  
Growing Degree Days 28 (Base 50)    
Moisture  
Dew Point 69 °F    
Average Humidity 75    
Maximum Humidity 100    
Minimum Humidity 49    
Precipitation  
Precipitation 0.00 in 0.13 in 0.52 in (1975)
Month to date precipitation 0.80 2.88  
Year to date precipitation 40.73 28.84  
Sea Level Pressure  
Sea Level Pressure 30.19 in    
Wind  
Wind Speed 5 mph (SSW)    
Max Wind Speed 12 mph    
Max Gust Speed 16 mph    
Visibility 3 miles    
Events Fog    
T = Trace of Precipitation, MM = Missing Value Source: NWS Daily Summary

Daily Weather History Graph

Daily Weather History Graph

Search for Another Location

Airport or City:

Trip Planner

Search our weather history database for the weather conditions in past years. The results will help you decide how hot, cold, wet, or windy it might be!

Date:

Astronomy

Aug. 26, 2013 Rise Set
Actual Time 6:14 AM CDT 7:29 PM CDT
Civil Twilight 5:46 AM CDT 7:56 PM CDT
Nautical Twilight 5:13 AM CDT 8:29 PM CDT
Astronomical Twilight 4:39 AM CDT 9:04 PM CDT
Moon 10:44 PM CDT (8/26) 12:11 PM CDT (8/26)
Length of Visible Light 14h 10m
Length of Day
13h 14m
Waning Gibbous, 66% of the Moon is Illuminated
Aug 26
Waning Gibbous
Aug 28
Last Quarter
Sep 5
New
Sep 12
First Quarter
Sep 19
Full

Hourly Weather History & Observations

Time (CDT) Temp. Heat Index Dew Point Humidity Pressure Visibility Wind Dir Wind Speed Gust Speed Precip Events Conditions
12:53 AM 70.0 °F - 68.0 °F 93% 30.23 in 5.0 mi Calm Calm - N/A   Clear
1:53 AM 69.1 °F - 66.9 °F 93% 30.22 in 4.0 mi Calm Calm - N/A   Clear
2:48 AM 69.8 °F - 68.0 °F 94% 30.22 in 2.5 mi Calm Calm - N/A   Clear
2:53 AM 69.1 °F - 68.0 °F 96% 30.21 in 2.5 mi Calm Calm - N/A   Clear
3:09 AM 69.8 °F - 66.2 °F 88% 30.22 in 3.0 mi SSW 3.5 mph - N/A   Clear
3:31 AM 69.8 °F - 66.2 °F 88% 30.22 in 2.0 mi South 4.6 mph - N/A   Clear
3:41 AM 68.0 °F - 66.2 °F 94% 30.22 in 1.8 mi South 4.6 mph - N/A   Clear
3:53 AM 68.0 °F - 66.9 °F 96% 30.21 in 1.5 mi South 4.6 mph - N/A   Clear
4:53 AM 66.9 °F - 66.0 °F 97% 30.21 in 1.0 mi South 3.5 mph - N/A   Clear
5:10 AM 66.2 °F - 66.2 °F 100% 30.22 in 0.8 mi Calm Calm - N/A   Mist
5:53 AM 66.9 °F - 66.0 °F 97% 30.22 in 0.2 mi Calm Calm - N/A Fog Fog
6:03 AM 66.2 °F - 66.2 °F 100% 30.23 in 0.2 mi South 3.5 mph - N/A Fog Fog
6:19 AM 66.2 °F - 66.2 °F 100% 30.23 in 0.2 mi South 4.6 mph - N/A Fog Fog
6:53 AM 68.0 °F - 66.9 °F 96% 30.23 in 0.5 mi South 3.5 mph - N/A Fog Fog
7:03 AM 69.8 °F - 68.0 °F 94% 30.25 in 1.2 mi Calm Calm - N/A   Partly Cloudy
7:53 AM 72.0 °F - 71.1 °F 97% 30.25 in 2.0 mi South 3.5 mph - N/A   Partly Cloudy
8:15 AM 75.2 °F - 71.6 °F 89% 30.25 in 3.0 mi SSW 3.5 mph - N/A   Clear
8:53 AM 79.0 °F - 72.0 °F 79% 30.24 in 4.0 mi SW 5.8 mph - N/A   Haze
9:53 AM 82.9 °F 88.0 °F 72.0 °F 69% 30.23 in 5.0 mi WSW 9.2 mph - N/A   Haze
10:53 AM 84.9 °F 90.1 °F 71.1 °F 63% 30.22 in 5.0 mi WSW 9.2 mph - N/A   Haze
11:53 AM 86.0 °F 90.7 °F 70.0 °F 59% 30.21 in 6.0 mi WNW 6.9 mph - N/A   Haze
12:53 PM 87.1 °F 92.8 °F 71.1 °F 59% 30.19 in 6.0 mi SW 6.9 mph - N/A   Haze
1:53 PM 87.1 °F 92.8 °F 71.1 °F 59% 30.17 in 5.0 mi WSW 6.9 mph - N/A   Haze
2:53 PM 91.0 °F 95.6 °F 69.1 °F 48% 30.14 in 6.0 mi WSW 8.1 mph - N/A   Haze
3:53 PM 89.1 °F 93.7 °F 69.1 °F 52% 30.12 in 6.0 mi SW 8.1 mph - N/A   Haze
4:53 PM 88.0 °F 92.9 °F 70.0 °F 55% 30.10 in 6.0 mi SSW 10.4 mph - N/A   Haze
5:53 PM 88.0 °F 92.9 °F 70.0 °F 55% 30.10 in 6.0 mi SW 8.1 mph - N/A   Haze
6:53 PM 86.0 °F 91.5 °F 71.1 °F 61% 30.09 in 5.0 mi SSW 5.8 mph - N/A   Haze
7:53 PM 80.1 °F 83.6 °F 71.1 °F 74% 30.09 in 5.0 mi SSW 5.8 mph - N/A   Haze
8:53 PM 77.0 °F - 72.0 °F 84% 30.10 in 5.0 mi SSW 4.6 mph - N/A   Haze
9:53 PM 75.9 °F - 72.0 °F 87% 30.09 in 4.0 mi SSW 4.6 mph - N/A   Clear
10:53 PM 73.9 °F - 71.1 °F 91% 30.10 in 4.0 mi South 4.6 mph - N/A   Clear
11:53 PM 73.0 °F - 71.1 °F 93% 30.10 in 3.0 mi South 3.5 mph - N/A   Clear